www.pogodaiklimat.ru

Погода и климат >> Архив погоды >> Индия >> Раджастхан >> Шри-Ганганагар


ПОГОДА в Шри-Ганганагаре

  • Прогноз погоды в Шри-Ганганагаре
  • Монитор погоды в Шри-Ганганагаре

АРХИВ ПОГОДЫ в Шри-Ганганагаре

Время (UTC), дата Ветер
(напр.,м/с)
 
Видим.   Явления Облачность Т
(С)
Тd
(С)
f
(%)
Тe
(С)
Тes
(С)
Комфортность P
(гПа)
Po
(гПа)
Тmin
(С)
Tmax
(С)
R
(мм)
R24
(мм)
S
(см)
12 12.09 З 1 4000 м ясно +38.6 +23.9 43 +49 +51 опасность
перегрева
999.0 979.8 +42.2
15 12.09 ЮВ 1 4000 м ясно +34.6 +28.1 69 +56 +56 опасность
перегрева
1001.0 981.5
18 12.09 В 1 4000 м ясно +32.2 +27.5 76 +51 +51 опасность
перегрева
1001.8 982.1
21 12.09 В 1 4000 м ясно +30.4 +26.5 80 +47 +47 опасность
перегрева
1001.6 981.8
00 13.09 В 1 4000 м ясно +29.0 +25.9 83 +43 +43 опасность
перегрева
1002.6 982.7
03 13.09 В 1 4000 м ясно +29.6 +27.1 86 +47 +52 опасность
перегрева
1004.1 984.2 +28.3 +42.2
06 13.09 ЮЗ 1 4000 м ясно +34.6 +24.4 56 +47 +64 опасность
перегрева
1004.2 984.7
09 13.09 В 1 4000 м 5/0
[Ci fib]
+38.6 +23.2 41 +48 +63 опасность
перегрева
1002.2 982.9
12 13.09 В 1 4000 м 5/0
[Ci fib]
+36.8 +24.1 48 +48 +50 опасность
перегрева
1000.6 981.3 +39.1
15 13.09 штиль 0 4000 м 4/0
[Ci fib]
+33.6 +26.4 66 +50 +50 опасность
перегрева
1002.6 983.0
18 13.09 В 1 4000 м 4/0
[Ci fib]
+31.0 +27.1 80 +49 +49 опасность
перегрева
1003.4 983.6
21 13.09 В 1 4000 м 3/0
[Ci fib]
+29.6 +26.8 85 +46 +46 опасность
перегрева
1003.6 983.7
00 14.09 В 1 4000 м 4/0
[Ci fib]
+28.6 +26.9 91 +45 +45 опасность
перегрева
1003.0 983.1
03 14.09 В 1 4000 м 3/0
[Ci fib]
+29.6 +27.1 86 +47 +51 опасность
перегрева
1004.9 985.0 +28.2 +39.1
06 14.09 ЮВ 1 4000 м 3/3 1200 м
[Sc]
+36.2 +25.0 53 +50 +63 опасность
перегрева
1004.6 985.1
09 14.09 ЮВ 1 4000 м 5/4 1200 м
[Sc Ci fib]
+38.2 +24.4 46 +50 +59 опасность
перегрева
1002.1 982.8
12 14.09 В 1 4000 м 4/3 1200 м
[Sc Ci fib]
+36.6 +25.8 54 +52 +53 опасность
перегрева
1001.5 982.1 +39.9
15 14.09 штиль 0 4000 м 4/0
[]
+32.6 +26.5 70 +49 +49 опасность
перегрева
1003.7 984.0
18 14.09 В 1 4000 м 3/0
[Ac trans]
+31.0 +26.0 75 +46 +46 опасность
перегрева
1004.4 984.6
21 14.09 В 1 4000 м 1/0
[Ac trans]
+29.4 +25.7 81 +44 +44 опасность
перегрева
1004.4 984.5
00 15.09 В 1 4000 м ясно +28.6 +26.1 86 +43 +43 опасность
перегрева
1004.6 984.7
03 15.09 В 1 4000 м ясно +29.6 +26.5 83 +45 +51 опасность
перегрева
1005.8 985.9 +28.0 +39.9
06 15.09 В 1 4000 м ясно +36.4 +23.9 49 +48 +66 опасность
перегрева
1005.2 985.7
09 15.09 В 1 4000 м ясно +39.6 +23.8 41 +50 +66 опасность
перегрева
1002.2 983.0
12 15.09 В 1 4000 м ясно +37.0 +25.0 50 +50 +52 опасность
перегрева
1001.8 982.5 +40.0
15 15.09 штиль 0 4000 м ясно +33.4 +24.9 61 +47 +47 опасность
перегрева
1003.1 983.5
18 15.09 штиль 0 4000 м ясно +31.6 +24.8 67 +45 +45 опасность
перегрева
1003.6 983.9
21 15.09 штиль 0 4000 м ясно +30.6 +24.9 72 +44 +44 опасность
перегрева
1003.2 983.4
00 16.09 штиль 0 4000 м ясно +29.0 +25.6 82 +43 +43 опасность
перегрева
1002.6 982.7
03 16.09 В 1 4000 м ясно +30.0 +25.2 76 +44 +48 опасность
перегрева
1003.7 983.9 +28.2 +40.0
06 16.09 штиль 0 4000 м ясно +37.4 +24.5 48 +50 +71 опасность
перегрева
1003.7 984.3
09 16.09 ЮВ 1 4000 м 4/4 1050 м
[Cu Sc]
+39.2 +22.9 39 +48 +58 опасность
перегрева
1000.6 981.4
12 16.09 В 1 4000 м 5/5 1050 м
[Cu Sc]
+37.4 +26.1 53 +53 +54 опасность
перегрева
999.8 980.5 +40.1
15 16.09 штиль 0 4000 м ясно +32.8 +25.8 67 +48 +48 опасность
перегрева
1001.2 981.6
18 16.09 штиль 0 4000 м ясно +31.0 +26.6 77 +47 +47 опасность
перегрева
1001.8 982.1
21 16.09 штиль 0 4000 м ясно +30.4 +26.2 78 +46 +46 опасность
перегрева
1002.6 982.8
00 17.09 штиль 0 4000 м ясно +28.6 +26.1 86 +43 +43 опасность
перегрева
1002.0 982.1
03 17.09 ЮЗ 2 4000 м ясно +30.4 +22.8 64 +40 +44 очень
душно
1004.0 984.2 +28.4 +40.1
06 17.09 З 1 4000 м ясно +36.4 +23.2 47 +47 +66 опасность
перегрева
1004.6 985.2
09 17.09 СЗ 1 4000 м 4/4 1050 м
[Cu Sc]
+39.6 +22.4 37 +48 +57 опасность
перегрева
1002.1 982.9
12 17.09 штиль 0 4000 м 3/3 1200 м
[Sc]
+37.4 +23.0 44 +47 +48 опасность
перегрева
1001.1 981.8 +40.5
15 17.09 В 1 4000 м ясно +33.4 +25.9 65 +49 +49 опасность
перегрева
1003.1 983.5
18 17.09 В 1 4000 м ясно +31.0 +24.4 68 +43 +43 опасность
перегрева
1003.9 984.1
21 17.09 В 1 4000 м ясно +29.6 +24.5 74 +42 +42 опасность
перегрева
1003.0 983.2
00 18.09 штиль 0 4000 м ясно +29.0 +24.4 76 +41 +41 опасность
перегрева
1004.8 984.9
03 18.09 ЮЗ 1 4000 м ясно +30.6 +22.1 61 +40 +44 очень
душно
1002.1 982.3 +28.3 +40.5
06 18.09 ЮВ 1 4000 м ясно +36.8 +23.4 46 +47 +66 опасность
перегрева
1007.2 987.7
09 18.09 штиль 0 4000 м 3/3 1200 м
[Cu med, cong]
+40.6 +21.5 34 +48 +60 опасность
перегрева
1005.4 986.2
12 18.09 В 1 4000 м ясно +36.6 +24.8 51 +50 +51 опасность
перегрева
1004.9 985.5 +41.3
15 18.09 В 1 4000 м ясно +32.6 +26.8 72 +50 +50 опасность
перегрева
1006.3 986.6
18 18.09 В 1 4000 м ясно +30.6 +27.0 81 +48 +48 опасность
перегрева
1007.5 987.6
21 18.09 В 1 4000 м ясно +29.6 +26.2 82 +45 +45 опасность
перегрева
1007.8 987.9
00 19.09 В 2 4000 м ясно +27.2 +23.4 80 +37 +37 очень
душно
1008.1 988.0
03 19.09 СВ 1 4000 м 3/3 1200 м
[Sc]
+27.8 +23.4 77 +38 +41 очень
душно
1010.0 989.9 +25.8 +41.3
06 19.09 ЮВ 1 4000 м 3/3 1200 м
[Sc]
+36.4 +21.9 43 +44 +57 опасность
перегрева
1012.0 992.4
09 19.09 В 2 4000 м 6/6 1050 м
[Cu Sc]
+36.2 +23.3 48 +47 +52 опасность
перегрева
1007.6 988.1

 

Местоположение метеостанции Шри-Ганганагар (Раджастхан, Индия): широта 29.93 долгота 73.89 высота над уровнем моря 177 м.

В архиве по умолчанию представлена погода в Шри-Ганганагаре за последнюю неделю. Архивные данные за месяц целиком и за предыдущие месяцы, начиная с января 2011 года, Вы можете получить, выбрав интересующий диапазон дат из раскрывающегося списка и нажав кнопку "Ввод!".


*Определитесь, кто Вы:
робот инопланетянин человек

Внимание! Время в таблицах - всемирное. Для получения местного времени необходимо прибавить поправку, которая равна 5.5 ч.

Смотрите также архив погоды в соседних городах и на ближайших метеорологических станциях:

Погода в Бахавалнагаре (Пакистан) (62 км)
Погода в Окаре (Пакистан) (106 км)
Погода в Сахивале (Пакистан) (117 км)
Погода в Касуре (Пакистан) (142 км)
Погода в Тоба Тек Сингх (Пакистан) (179 км)
Погода в Фейсалабаде (Пакистан) (183 км)
Погода в Лахор аэропорту (Пакистан) (183 км)
Погода в Лахоре (Пакистан) (185 км)
Погода на Авиабазе Raifiqui (Пакистан) (188 км)
Погода в Ханевале (Пакистан) (196 км)

Пояснения к столбцам:

Ветер - указаны скорость ветра в м/с - средняя за 10 мин, порывы в срок и между сроками (в фигурных скобках) и направление, откуда дует ветер: С - северный, СВ - северо-восточный, В - восточный, ЮВ - юго-восточный, Ю - южный, ЮЗ - юго-западный, З - западный, СЗ - северо-западный.
Видимость - горизонтальная дальность видимости в метрах или километрах. При видимости от 1 до 10 км при отсутствии осадков обычно наблюдается дымка, при ухудшении видимости до 1 км и менее - туман. В сухую погоду видимость может ухудшаться дымом, пылью или мглою.
Явления - указаны атмосферные явления, наблюдавшиеся в срок или в последний час перед сроком; фигурными скобками обозначены явления, наблюдавшиеся между сроками (за 1-3 часа до срока); квадратными скобками обозначены град или гололедные отложения с указанием их диаметра в мм.
Облачность - указаны через наклонную черту общая и нижняя облачность в баллах и высота нижней границы облаков в метрах; квадратными скобками обозначены формы облаков: Ci - перистые, Cs - перисто-слоистые, Cc - перисто-кучевые, Ac - высококучевые, As - высокослоистые, Sc - слоисто-кучевые, Ns - слоисто-дождевые, Cu - кучевые, Cb - кучево-дождевые. Подробнее классификацию облаков см. в Атласе облаков (PDF).
T - Температура воздуха - температура, измеренная на высоте 2 м над землей.
Td - Температура точки росы - температура, при понижении до которой содержащийся в воздухе водяной пар достигнет насыщения.
f - Относительная влажность воздуха - влажноcть воздуха, измеренная на высоте 2 м над землей.
Te - Эффективная температура - температура, которую ощущает одетый по сезону человек в тени. Характеристика душности погоды. При расчете учитывается влияние влажности воздуха и скорости ветра на теплоощущения человека.
Tes - Эффективная температура на солнце - температура, которую ощущает человек, с поправкой на солнечный нагрев. Характеристика знойности погоды. Зависит от высоты солнца над горизонтом, облачности и скорости ветра. Ночью, в пасмурную погоду, а также при ветре 12 м/с и более поправка равна нулю.
P - Атмосферное давление - приведенное к уровню моря атмосферное давление.
Po - Атмосферное давление - измеренное на уровне метеостанции атмосферное давление.
Tmin - Минимальная температура - минимум температуры воздуха на высоте 2 м над землей.
Tmax - Максимальная температура - максимум температуры воздуха на высоте 2 м над землей.
R - Количество осадков - Количество выпавших осадков за период времени, мм. При наведении курсора мыши на число - период времени, за который выпало указанное количество осадков.
R24 - Количество осадков - Количество выпавших осадков за 24 часа, мм.
S - Снежный покров - Высота снежного покрова, см. При наведении курсора мыши на число - состояние снежного покрова и степень покрытия местности в баллах.